Location: Morlupo
(42.1333°N, 12.5000°E)
Time: 15:50:34
(UTC+00:00)

DMSP B5D2-2 - Pass Details

Date: 18 September 2020
Orbit: 790 x 806 km, 98.3° (Epoch: 25 October)

Event Time Altitude Azimuth Distance (km) Brightness Sun altitude
Rises 18:40:31 0° 17° (NNE) 3,330 7.3 -16.6°
Reaches altitude 10° 18:42:55 10° 22° (NNE) 2,395 6.5 -17.1°
Maximum altitude 18:48:07 56° 100° (E) 953 4.1 -18.0°
Drops below altitude 10° 18:53:17 10° 179° (S) 2,376 6.3 -18.9°
Sets 18:55:39 0° 183° (S) 3,300 7.1 -19.3°
